Retour au catalogue

SL-8 R/B

ActifPO
NORAD 12298·ROCKET BODY·🇷🇺 Russia

Lancé Feb 12, 1981 depuis Plesetsk Cosmodrome

Loading…

Prochains Passages (prochaines 24 heures)

TLE

FraisSource: Space-Track

Époque: Sep 14, 2026, 04:05 UTC

1 12298U 81013B   26257.17079135  .00000068  00000-0  53513-4 0  9995
2 12298  82.9534 342.8972 0030154 161.5685 212.7535 13.76941475289501

Suivez SL-8 R/B en temps réel avec AllMySat

Download on the App Store